Flag for Canada Weather past 2 weeks in Delta, British Columbia, Canada

Now
50 °F

Light rain. Broken clouds.


Feels Like: 44 °F
Forecast: 43 / 52 °F
Wind: 20 mph from Southeast

Location: Vancouver International Air-Port


UV Index: 3 (Moderate)

Visibility: 8 mi


Pressure: 29.90 "Hg

Humidity: 82%

Dew point: 45 °F

Location of DeltaLocation

Historic Weather in Delta

°F

Delta temperature yesterday

Maximum temperature yesterday: 55 °F (at 3:00 PM)
Minimum temperature yesterday: 45 °F (at 5:00 AM)
Average temperature yesterday: 50 °F

Past Weeks' High & Low Weather Summary

 TemperatureHumidityPressure
High61 °F (Apr 14, 3:00 PM)100% (Apr 5, 11:00 PM)30.35 "Hg (Apr 5, 11:00 PM)
Low37 °F (Apr 14, 5:00 AM)41% (Apr 13, 10:00 PM)29.67 "Hg (Apr 17, 7:00 PM)
Average50 °F78%30.08 "Hg
* Reported Apr 4 5:00 PM — Apr 19 5:00 PM, Delta, Weather by CustomWeather, © 2014

Note: Actual official high and low records may vary slightly from our data, if they occured in-between our weather recording intervals... More about our weather records

Advertising

Historic Weather Conditions — Data for Previous 24 hours

 ConditionsComfort  
Time TempWeatherWind HumidityBarometerVisibility
5:00 PM
Apr 19
48 °FLight rain. Mostly cloudy.12 mph87%29.88 "Hg8 mi
4:00 PM50 °FMostly cloudy.17 mph82%29.87 "Hg12 mi
3:00 PM50 °FMostly cloudy.14 mph82%29.85 "Hg10 mi
2:00 PM50 °FLight rain. Mostly cloudy.16 mph76%29.83 "Hg12 mi
1:04 PM52 °FLight rain. Mostly cloudy.16 mph62%29.80 "Hg15 mi
12:00 PM54 °FMostly cloudy.9 mph58%29.77 "Hg20 mi
11:00 AM52 °FMore clouds than sun.14 mph62%29.76 "Hg20 mi
10:00 AM50 °FOvercast.10 mph67%29.78 "Hg20 mi
9:00 AM48 °FBroken clouds.9 mph66%29.76 "Hg20 mi
8:00 AM46 °FMostly cloudy.14 mph71%29.77 "Hg20 mi
7:00 AM46 °FPartly cloudy.6 mph76%29.81 "Hg20 mi
6:00 AM46 °FOvercast.8 mph82%29.83 "Hg15 mi
5:00 AM46 °FOvercast.5 mph76%29.83 "Hg15 mi
4:00 AM46 °FOvercast.8 mph71%29.84 "Hg15 mi
2:00 AM46 °FMostly cloudy.5 mph71%29.88 "Hg15 mi
1:00 AM48 °FOvercast.9 mph66%29.91 "Hg15 mi
12:00 AM48 °FMostly cloudy.9 mph71%29.94 "Hg15 mi
11:00 PM
Apr 18
48 °FOvercast.9 mph71%29.97 "Hg15 mi
10:00 PM50 °FPassing clouds.7 mph67%30.00 "Hg15 mi
9:00 PM50 °FPartly sunny.8 mph67%30.01 "Hg15 mi
8:00 PM52 °FPartly sunny.7 mph62%30.02 "Hg20 mi
7:00 PM54 °FBroken clouds.12 mph58%30.04 "Hg20 mi
6:00 PM54 °FBroken clouds.7 mph51%30.05 "Hg20 mi
Weather by CustomWeather, © 2014

See weather overview